Regional Weather Roundup
Issued by NWS

Home | Current Version | Previous Version | Graphics & Text | Print | Product List | Glossary On
Versions: 1 2 3 4 5 6 7 8 9 10 11 12 13 14 15 16 17 18 19 20 21 22 23 24 25 26 27 28 29 30 31 32 33 34 35 36 37 38 39 40 41 42 43 44 45 46 47 48 49 50
000
ASUS43 KTOP 240608
RWRKS

WEATHER ROUNDUP FOR KANSAS
NATIONAL WEATHER SERVICE GOODLAND KS
100 AM CDT FRI OCT 24 2014

NOTE:  "FAIR" INDICATES FEW OR NO CLOUDS BELOW 12,000 FEET WITH NO
SIGNIFICANT WEATHER AND/OR OBSTRUCTIONS TO VISIBILITY.

KSZ001>006-013>018-027>032-041>047-240700-
NORTHWEST KANSAS

CITY           SKY/WX    TMP DP  RH WIND       PRES   REMARKS
GOODLAND       PTCLDY    57  52  83 SW16      30.07F
6HR MIN TEMP:  55; 6HR MAX TEMP:  63;

HAYS           CLEAR     55  50  82 S6        30.05S
HILL CITY      CLEAR     59  54  83 SW3       30.03F
6HR MIN TEMP:  57; 6HR MAX TEMP:  68;

RUSSELL        CLEAR     60  57  89 S12       30.03F
6HR MIN TEMP:  57; 6HR MAX TEMP:  66;

$$

KSZ061>065-074>080-084>089-240700-
SOUTHWEST KANSAS

CITY           SKY/WX    TMP DP  RH WIND       PRES   REMARKS
DODGE CITY     CLEAR     61  57  87 S9        30.07F
6HR MIN TEMP:  60; 6HR MAX TEMP:  64;

ELKHART          N/A     57  50  78 S7          N/A
GARDEN CITY    PTCLDY    57  55  93 SE7       30.08S FOG
6HR MIN TEMP:  57; 6HR MAX TEMP:  66;

GREAT BEND     CLEAR     57  54  88 S6        30.06F
LIBERAL        CLEAR     57  52  82 SW7       30.11S
PRATT          CLEAR     61  57  88 S6        30.08F
$$

KSZ066>073-081>083-090>101-240700-
SOUTHEAST KANSAS

CITY           SKY/WX    TMP DP  RH WIND       PRES   REMARKS
CHANUTE        PTCLDY    55  54  96 SE6       30.10S FOG
6HR MIN TEMP:  55; 6HR MAX TEMP:  63;

COFFEYVILLE    PTCLDY    55  54  96 CALM      30.11S
6HR MIN TEMP:  55; 6HR MAX TEMP:  60;

HUTCHINSON     CLEAR     60  57  89 S5        30.07S
6HR MIN TEMP:  59; 6HR MAX TEMP:  66;

MEDICINE LODGE   N/A     61  59  93 CALM      30.06S
NEWTON         CLEAR     59  54  82 S7        30.09S
PARSONS        CLEAR     54  54 100 CALM      30.11F FOG
6HR MIN TEMP:  54; 6HR MAX TEMP:  61;

WICHITA INTL   PTCLDY    62  58  86 S9        30.07S
6HR MIN TEMP:  62; 6HR MAX TEMP:  69;

WICHITA JABRA  CLEAR     60  58  92 S8        30.07S
6HR MIN TEMP:  59; 6HR MAX TEMP:  65;

WICHITA MCCONL CLEAR     61  61 100 SE7       30.08S
WINFIELD       CLEAR     59  57  93 S9        30.09F
6HR MIN TEMP:  59; 6HR MAX TEMP:  69;

$$

KSZ007>012-019>026-033>040-048>060-102>105-240700-
NORTHEAST KANSAS

CITY           SKY/WX    TMP DP  RH WIND       PRES   REMARKS
CONCORDIA      PTCLDY    61  60  97 S10       30.03F FOG
6HR MIN TEMP:  59; 6HR MAX TEMP:  66;

EMPORIA        FOG       57  57 100 S13       30.08S VSB 1
6HR MIN TEMP:  57; 6HR MAX TEMP:  63;

LAWRENCE       PTCLDY    54  53  97 SE3       30.08S FOG
6HR MIN TEMP:  53; 6HR MAX TEMP:  59;

MANHATTAN      PTCLDY    57  55  93 CALM      30.05F FOG
6HR MIN TEMP:  55; 6HR MAX TEMP:  65;

MARYSVILLE     MOCLDY    55  55 100 S6        30.03F
OLATHE IND     MOCLDY    55  55 100 S6        30.09S FOG
6HR MIN TEMP:  54; 6HR MAX TEMP:  62;

OLATHE EXE     FOG       57  57 100 S6        30.08S VSB 1/2
6HR MIN TEMP:  56; 6HR MAX TEMP:  63;

SALINA         PTCLDY    59  57  93 S6        30.05F FOG
6HR MIN TEMP:  59; 6HR MAX TEMP:  66;

TOPEKA BILLARD PTCLDY    60  59  96 S8        30.07S
6HR MIN TEMP:  59; 6HR MAX TEMP:  64;

TOPEKA FORBES  PTCLDY    57  56  96 S8        30.07S FOG
6HR MIN TEMP:  57; 6HR MAX TEMP:  63;

$$



USA.gov is the U.S. government's official web portal to all federal, state and local government web resources and services.